OE6PWE-13 Weather Reports


time (UTC)temp
C
wind
direction
speed
KPH
gust
KPH
rain 1hr
cm
rain 24hr
cm
rain mn
cm
humidity
%
barometer
mb
20260503034514 5 0 0.0 0.0 0.00 0.00 0.00 96 1020.0
20260503033021 5 0 0.0 0.0 0.00 0.00 0.00 95 1020.0
20260503031513 5 0 0.0 0.0 0.00 0.00 0.00 95 1020.0
20260503030020 5 0 0.0 0.0 0.00 0.00 0.00 94 1020.0
20260503024513 6 0 0.0 3.2 0.00 0.00 0.00 94 1020.0
20260503023019 6 0 0.0 0.0 0.00 0.00 0.00 93 1020.0
20260503021513 6 0 0.0 0.0 0.00 0.00 0.00 92 1020.0
20260503020020 7 0 0.0 0.0 0.00 0.00 0.00 91 1020.0
20260503014513 7 0 0.0 1.6 0.00 0.00 0.00 91 1020.0
20260503013020 7 0 0.0 0.0 0.00 0.00 0.00 91 1020.0
20260503011513 7 0 0.0 0.0 0.00 0.00 0.00 90 1020.0
20260503010021 7 0 0.0 0.0 0.00 0.00 0.00 88 1020.0
20260503004513 7 0 0.0 3.2 0.00 0.00 0.00 91 1020.0
20260503003019 7 0 0.0 0.0 0.00 0.00 0.00 90 1020.0
20260503001512 7 0 0.0 0.0 0.00 0.00 0.00 89 1020.0
20260503000020 8 0 0.0 0.0 0.00 0.00 0.00 88 1020.0
20260502234513 8 0 0.0 0.0 0.00 0.00 0.00 88 1020.0
20260502233020 8 0 0.0 0.0 0.00 0.00 0.00 87 1021.0
20260502231513 8 0 0.0 0.0 0.00 0.00 0.00 86 1021.0
20260502230021 8 0 0.0 0.0 0.00 0.00 0.00 86 1021.0
20260502224513 8 0 0.0 0.0 0.00 0.00 0.00 85 1021.0
20260502223020 8 0 0.0 0.0 0.00 0.00 0.00 84 1021.0
20260502221513 9 0 0.0 0.0 0.00 0.00 0.00 82 1021.0
20260502220021 10 0 0.0 0.0 0.00 0.00 0.00 82 1021.0
20260502214513 10 180 0.0 3.2 0.00 0.00 0.00 81 1021.0
20260502213019 10 0 0.0 0.0 0.00 0.00 0.00 79 1021.0
20260502211513 10 0 0.0 0.0 0.00 0.00 0.00 80 1021.0
20260502210021 11 0 0.0 0.0 0.00 0.00 0.00 77 1021.0
20260502204513 11 0 0.0 0.0 0.00 0.00 0.00 76 1021.0
20260502203021 11 0 0.0 0.0 0.00 0.00 0.00 75 1021.0
20260502201513 11 0 0.0 0.0 0.00 0.00 0.00 74 1021.0
20260502200021 12 0 0.0 0.0 0.00 0.00 0.00 74 1021.0
20260502194513 13 0 0.0 0.0 0.00 0.00 0.00 71 1020.0
20260502193021 13 0 0.0 0.0 0.00 0.00 0.00 68 1020.0
20260502191513 15 0 0.0 0.0 0.00 0.00 0.00 63 1020.0
20260502184513 16 0 0.0 0.0 0.00 0.00 0.00 56 1019.0
20260502183019 17 0 0.0 0.0 0.00 0.00 0.00 53 1019.0
20260502181513 19 0 0.0 0.0 0.00 0.00 0.00 49 1018.0
20260502163019 23 90 0.0 6.4 0.00 0.00 0.00 36 1018.0
20260502161513 24 195 3.2 11.3 0.00 0.00 0.00 35 1018.0
20260502151513 25 146 3.2 8.0 0.00 0.00 0.00 34 1019.0
20260502123021 25 272 3.2 9.7 0.00 0.00 0.00 32 1020.0
20260502121513 25 232 1.6 6.4 0.00 0.00 0.00 33 1020.0
20260502114513 23 0 1.6 4.8 0.00 0.00 0.00 34 1021.0
20260502111513 23 248 6.4 17.7 0.00 0.00 0.00 39 1021.0
20260502110020 23 262 1.6 8.0 0.00 0.00 0.00 37 1021.0
20260502104513 23 257 3.2 8.0 0.00 0.00 0.00 38 1022.0
20260502103020 22 283 3.2 9.7 0.00 0.00 0.00 38 1022.0
20260502101513 21 248 3.2 9.7 0.00 0.00 0.00 40 1022.0
20260502091513 21 330 3.2 12.9 0.00 0.00 0.00 43 1023.0
20260502071513 16 270 0.0 3.2 0.00 0.00 0.00 57 1024.0
20260502070019 13 0 0.0 0.0 0.00 0.00 0.00 66 1025.0
20260502064513 10 0 0.0 0.0 0.00 0.00 0.00 73 1025.0
20260502063019 8 0 0.0 0.0 0.00 0.00 0.00 80 1026.0
20260502061513 7 0 0.0 0.0 0.00 0.00 0.00 93 1026.0
20260502060020 5 0 0.0 0.0 0.00 0.00 0.00 99 1026.0
20260502054513 4 0 0.0 0.0 0.00 0.00 0.00 99 1027.0
20260502053020 3 0 0.0 0.0 0.00 0.00 0.00 99 1027.0
20260502051513 3 0 0.0 0.0 0.00 0.00 0.00 99 1027.0
20260502050020 3 0 0.0 0.0 0.00 0.00 0.00 99 1027.0
20260502044513 2 0 0.0 0.0 0.00 0.00 0.00 99 1027.0
20260502043020 2 0 0.0 0.0 0.00 0.00 0.00 99 1027.0
20260502041513 2 0 0.0 0.0 0.00 0.00 0.00 99 1027.0
20260502040019 3 0 0.0 0.0 0.00 0.00 0.00 99 1026.0